Time,TemperatureF,DewpointF,PressureIn,WindDirection,WindDirectionDegrees,WindSpeedMPH,WindSpeedGustMPH,Humidity,HourlyPrecipIn,Conditions,Clouds,dailyrainin,SoftwareType,DateUTC
2013-05-27 00:01:00,43.5,41.0,30.14,SW,221,0.0,0.0,91,0.00,RA,,0.00,WeatherDisplay:10.37,2013-05-27 04:01:00,
2013-05-27 00:06:00,43.4,40.9,30.14,SW,220,0.4,2.3,91,0.00,RA,,0.00,WeatherDisplay:10.37,2013-05-27 04:06:00,
2013-05-27 00:11:00,43.4,40.9,30.15,SW,218,0.5,2.0,91,0.00,CLR,,0.00,WeatherDisplay:10.37,2013-05-27 04:11:00,
2013-05-27 00:16:00,43.3,41.1,30.14,SW,215,1.6,2.3,92,0.00,CLR,,0.00,WeatherDisplay:10.37,2013-05-27 04:16:00,
2013-05-27 00:21:00,43.2,41.0,30.15,SSW,212,2.1,2.3,92,0.00,CLR,,0.00,WeatherDisplay:10.37,2013-05-27 04:21:00,
2013-05-27 00:26:00,43.2,41.0,30.14,South,174,2.4,3.5,92,0.00,CLR,,0.00,WeatherDisplay:10.37,2013-05-27 04:26:00,
2013-05-27 00:32:00,43.0,40.8,30.14,ESE,122,1.6,3.5,92,0.00,CLR,,0.00,WeatherDisplay:10.37,2013-05-27 04:32:00,
2013-05-27 00:37:00,42.9,40.7,30.14,ESE,122,1.5,2.3,92,0.00,CLR,,0.00,WeatherDisplay:10.37,2013-05-27 04:37:00,
2013-05-27 00:42:00,42.8,40.6,30.14,ESE,122,1.7,3.5,92,0.00,CLR,,0.00,WeatherDisplay:10.37,2013-05-27 04:42:00,
2013-05-27 00:47:00,42.9,41.0,30.14,ESE,122,2.0,3.5,93,0.00,CLR,,0.00,WeatherDisplay:10.37,2013-05-27 04:47:00,
2013-05-27 00:52:00,42.9,40.7,30.14,ESE,122,2.9,4.0,92,0.00,CLR,,0.00,WeatherDisplay:10.37,2013-05-27 04:52:00,
2013-05-27 00:57:00,42.8,40.6,30.14,ESE,122,1.8,3.5,92,0.00,CLR,,0.00,WeatherDisplay:10.37,2013-05-27 04:57:00,
2013-05-27 01:02:00,42.7,40.5,30.15,ESE,122,2.5,3.5,92,0.00,CLR,,0.00,WeatherDisplay:10.37,2013-05-27 05:02:00,
2013-05-27 01:07:00,42.6,40.4,30.14,ESE,121,2.5,3.5,92,0.00,CLR,,0.00,WeatherDisplay:10.37,2013-05-27 05:07:00,
2013-05-27 01:13:00,42.6,40.4,30.15,ESE,120,2.1,3.5,92,0.00,CLR,,0.00,WeatherDisplay:10.37,2013-05-27 05:13:00,
2013-05-27 01:18:00,42.6,40.4,30.15,ESE,119,2.2,3.5,92,0.00,CLR,,0.00,WeatherDisplay:10.37,2013-05-27 05:18:00,
2013-05-27 01:23:00,42.7,40.5,30.15,ESE,119,1.8,3.5,92,0.00,CLR,,0.00,WeatherDisplay:10.37,2013-05-27 05:23:00,
2013-05-27 01:28:00,42.8,40.6,30.15,ESE,119,2.1,3.5,92,0.00,CLR,,0.00,WeatherDisplay:10.37,2013-05-27 05:28:00,
2013-05-27 01:33:00,43.1,40.9,30.15,ESE,119,2.3,3.5,92,0.00,CLR,,0.00,WeatherDisplay:10.37,2013-05-27 05:33:00,
2013-05-27 01:38:00,43.3,40.8,30.15,ESE,119,0.2,2.3,91,0.00,CLR,,0.00,WeatherDisplay:10.37,2013-05-27 05:38:00,
2013-05-27 01:43:00,43.3,40.6,30.14,ESE,119,0.6,3.5,90,0.00,CLR,,0.00,WeatherDisplay:10.37,2013-05-27 05:43:00,
2013-05-27 01:48:00,43.3,40.6,30.14,ESE,119,1.8,3.0,90,0.00,CLR,,0.00,WeatherDisplay:10.37,2013-05-27 05:48:00,
2013-05-27 01:54:00,43.2,40.5,30.14,ESE,119,1.6,4.0,90,0.00,CLR,,0.00,WeatherDisplay:10.37,2013-05-27 05:54:00,
2013-05-27 01:59:00,43.1,40.4,30.15,ESE,118,2.1,3.5,90,0.00,CLR,,0.00,WeatherDisplay:10.37,2013-05-27 05:59:00,
2013-05-27 02:04:00,43.1,40.4,30.15,ESE,113,2.2,3.5,90,0.00,CLR,,0.00,WeatherDisplay:10.37,2013-05-27 06:04:00,
2013-05-27 02:09:00,43.0,40.0,30.14,ESE,111,2.3,3.5,89,0.00,CLR,,0.00,WeatherDisplay:10.37,2013-05-27 06:09:00,
2013-05-27 02:14:00,42.7,40.0,30.14,East,101,2.7,3.5,90,0.00,CLR,,0.00,WeatherDisplay:10.37,2013-05-27 06:14:00,
2013-05-27 02:19:00,42.4,39.7,30.14,East,101,1.8,3.5,90,0.00,CLR,,0.00,WeatherDisplay:10.37,2013-05-27 06:19:00,
2013-05-27 02:24:00,42.2,39.5,30.14,East,100,3.0,4.0,90,0.00,CLR,,0.00,WeatherDisplay:10.37,2013-05-27 06:24:00,
2013-05-27 02:29:00,42.1,39.7,30.14,ESE,105,1.9,3.5,91,0.00,CLR,,0.00,WeatherDisplay:10.37,2013-05-27 06:29:00,
2013-05-27 02:35:00,42.1,39.7,30.14,ESE,104,3.2,3.5,91,0.00,CLR,,0.00,WeatherDisplay:10.37,2013-05-27 06:35:00,
2013-05-27 02:40:00,42.1,39.7,30.14,ESE,105,1.5,3.5,91,0.00,CLR,,0.00,WeatherDisplay:10.37,2013-05-27 06:40:00,
2013-05-27 02:45:00,42.1,39.7,30.15,ESE,107,2.3,3.5,91,0.00,CLR,,0.00,WeatherDisplay:10.37,2013-05-27 06:45:00,
2013-05-27 02:50:00,42.2,39.8,30.15,ESE,107,0.3,2.3,91,0.00,CLR,,0.00,WeatherDisplay:10.37,2013-05-27 06:50:00,
2013-05-27 02:55:00,42.1,39.7,30.15,ESE,107,1.2,3.5,91,0.00,CLR,,0.00,WeatherDisplay:10.37,2013-05-27 06:55:00,
2013-05-27 03:00:00,42.2,39.8,30.15,ESE,107,0.2,2.3,91,0.00,CLR,,0.00,WeatherDisplay:10.37,2013-05-27 07:00:00,
2013-05-27 03:05:00,42.2,39.8,30.15,ESE,107,1.7,3.5,91,0.00,CLR,,0.00,WeatherDisplay:10.37,2013-05-27 07:05:00,
2013-05-27 03:10:00,42.4,39.7,30.15,ESE,108,3.1,3.5,90,0.00,CLR,,0.00,WeatherDisplay:10.37,2013-05-27 07:10:00,
2013-05-27 03:15:00,42.7,40.0,30.15,ESE,108,2.2,3.5,90,0.00,CLR,,0.00,WeatherDisplay:10.37,2013-05-27 07:15:00,
2013-05-27 03:20:00,42.6,39.6,30.15,ESE,107,1.7,3.5,89,0.00,CLR,,0.00,WeatherDisplay:10.37,2013-05-27 07:20:00,
2013-05-27 03:25:00,42.4,39.4,30.15,ESE,108,1.3,3.5,89,0.00,CLR,,0.00,WeatherDisplay:10.37,2013-05-27 07:25:00,
2013-05-27 03:30:00,42.3,39.6,30.15,ESE,109,2.3,3.5,90,0.00,CLR,,0.00,WeatherDisplay:10.37,2013-05-27 07:30:00,
2013-05-27 03:36:00,42.5,39.5,30.15,ESE,112,1.9,3.5,89,0.00,CLR,,0.00,WeatherDisplay:10.37,2013-05-27 07:36:00,
2013-05-27 03:41:00,42.8,39.8,30.15,ESE,112,1.5,3.5,89,0.00,CLR,,0.00,WeatherDisplay:10.37,2013-05-27 07:41:00,
2013-05-27 03:46:00,42.8,39.5,30.15,ESE,116,2.3,4.6,88,0.00,CLR,,0.00,WeatherDisplay:10.37,2013-05-27 07:46:00,
2013-05-27 03:51:00,42.8,39.5,30.15,ESE,116,1.7,2.3,88,0.00,CLR,,0.00,WeatherDisplay:10.37,2013-05-27 07:51:00,
2013-05-27 03:56:00,42.5,39.2,30.15,ESE,116,1.7,2.3,88,0.00,CLR,,0.00,WeatherDisplay:10.37,2013-05-27 07:56:00,
2013-05-27 04:01:00,42.4,39.4,30.16,ESE,116,1.6,3.5,89,0.00,CLR,,0.00,WeatherDisplay:10.37,2013-05-27 08:01:00,
2013-05-27 04:07:00,42.3,39.3,30.16,ESE,117,2.1,3.5,89,0.00,CLR,,0.00,WeatherDisplay:10.37,2013-05-27 08:07:00,
2013-05-27 04:12:00,42.2,39.2,30.16,ESE,107,3.5,4.0,89,0.00,CLR,,0.00,WeatherDisplay:10.37,2013-05-27 08:12:00,
2013-05-27 04:17:00,42.2,39.2,30.16,ESE,108,0.1,1.2,89,0.00,CLR,,0.00,WeatherDisplay:10.37,2013-05-27 08:17:00,
2013-05-27 04:22:00,42.2,39.2,30.16,ESE,108,2.1,3.5,89,0.00,CLR,,0.00,WeatherDisplay:10.37,2013-05-27 08:22:00,
2013-05-27 04:27:00,42.2,39.2,30.16,ESE,110,2.5,3.5,89,0.00,CLR,,0.00,WeatherDisplay:10.37,2013-05-27 08:27:00,
2013-05-27 04:32:00,42.3,39.3,30.16,ESE,109,2.1,3.5,89,0.00,CLR,,0.00,WeatherDisplay:10.37,2013-05-27 08:32:00,
2013-05-27 04:38:00,42.2,39.2,30.16,ESE,109,1.5,3.5,89,0.00,CLR,,0.00,WeatherDisplay:10.37,2013-05-27 08:38:00,
2013-05-27 04:43:00,42.1,39.1,30.17,ESE,109,2.0,3.5,89,0.00,CLR,,0.00,WeatherDisplay:10.37,2013-05-27 08:43:00,
2013-05-27 04:48:00,41.8,38.8,30.17,ESE,109,2.4,3.5,89,0.00,CLR,,0.00,WeatherDisplay:10.37,2013-05-27 08:48:00,
2013-05-27 04:53:00,41.5,38.8,30.17,ESE,109,2.4,3.5,90,0.00,CLR,,0.00,WeatherDisplay:10.37,2013-05-27 08:53:00,
2013-05-27 04:58:00,41.3,38.6,30.17,ESE,109,0.0,2.3,90,0.00,CLR,,0.00,WeatherDisplay:10.37,2013-05-27 08:58:00,
2013-05-27 05:03:00,41.1,38.4,30.17,ESE,109,0.1,2.0,90,0.00,CLR,,0.00,WeatherDisplay:10.37,2013-05-27 09:03:00,
2013-05-27 05:08:00,41.3,38.9,30.17,ESE,111,1.8,4.6,91,0.00,CLR,,0.00,WeatherDisplay:10.37,2013-05-27 09:08:00,
2013-05-27 05:13:00,41.6,38.9,30.17,ESE,111,2.0,3.5,90,0.00,CLR,,0.00,WeatherDisplay:10.37,2013-05-27 09:13:00,
2013-05-27 05:18:00,41.7,39.0,30.17,ESE,112,0.5,3.5,90,0.00,CLR,,0.00,WeatherDisplay:10.37,2013-05-27 09:18:00,
2013-05-27 05:24:00,42.0,39.0,30.17,ESE,117,1.7,3.5,89,0.00,CLR,,0.00,WeatherDisplay:10.37,2013-05-27 09:24:00,
2013-05-27 05:29:00,42.3,39.0,30.18,ESE,121,2.7,3.5,88,0.00,CLR,,0.00,WeatherDisplay:10.37,2013-05-27 09:29:00,
2013-05-27 05:34:00,42.2,38.9,30.18,ESE,119,0.6,3.5,88,0.00,CLR,,0.00,WeatherDisplay:10.37,2013-05-27 09:34:00,
2013-05-27 05:39:00,41.9,38.9,30.18,ESE,115,3.6,3.6,89,0.00,CLR,,0.00,WeatherDisplay:10.37,2013-05-27 09:39:00,
2013-05-27 05:44:00,41.7,38.7,30.18,ESE,115,1.8,3.5,89,0.00,CLR,,0.00,WeatherDisplay:10.37,2013-05-27 09:44:00,
2013-05-27 05:49:00,41.7,38.7,30.18,ESE,113,3.2,3.5,89,0.00,CLR,,0.00,WeatherDisplay:10.37,2013-05-27 09:49:00,
2013-05-27 05:54:00,41.7,38.7,30.18,ESE,113,0.4,2.3,89,0.00,CLR,,0.00,WeatherDisplay:10.37,2013-05-27 09:54:00,
2013-05-27 06:00:00,41.8,38.8,30.18,ESE,112,2.3,3.5,89,0.00,CLR,,0.00,WeatherDisplay:10.37,2013-05-27 10:00:00,
2013-05-27 06:05:00,41.8,39.1,30.18,East,95,4.0,4.6,90,0.00,CLR,,0.00,WeatherDisplay:10.37,2013-05-27 10:05:00,
2013-05-27 06:10:00,42.1,39.4,30.18,East,101,3.5,3.5,90,0.00,CLR,,0.00,WeatherDisplay:10.37,2013-05-27 10:10:00,
2013-05-27 06:15:00,42.5,39.5,30.18,East,101,1.4,3.5,89,0.00,CLR,,0.00,WeatherDisplay:10.37,2013-05-27 10:15:00,
2013-05-27 06:20:00,42.9,39.6,30.18,ESE,113,0.1,2.3,88,0.00,CLR,,0.00,WeatherDisplay:10.37,2013-05-27 10:20:00,
2013-05-27 06:25:00,43.3,39.7,30.19,ESE,113,0.2,3.5,87,0.00,CLR,,0.00,WeatherDisplay:10.37,2013-05-27 10:25:00,
2013-05-27 06:30:00,43.6,40.0,30.19,ESE,113,0.1,1.2,87,0.00,CLR,,0.00,WeatherDisplay:10.37,2013-05-27 10:30:00,
2013-05-27 06:35:00,43.8,40.5,30.19,ESE,113,0.0,0.0,88,0.00,CLR,,0.00,WeatherDisplay:10.37,2013-05-27 10:35:00,
2013-05-27 06:40:00,44.0,40.4,30.19,SW,219,0.2,2.3,87,0.00,CLR,,0.00,WeatherDisplay:10.37,2013-05-27 10:40:00,
2013-05-27 06:46:00,44.3,40.4,30.19,West,259,0.0,0.0,86,0.00,CLR,,0.00,WeatherDisplay:10.37,2013-05-27 10:46:00,
2013-05-27 06:51:00,44.9,41.0,30.19,West,259,2.1,3.0,86,0.00,CLR,,0.00,WeatherDisplay:10.37,2013-05-27 10:51:00,
2013-05-27 06:56:00,45.2,41.0,30.19,West,259,2.0,3.5,85,0.00,CLR,,0.00,WeatherDisplay:10.37,2013-05-27 10:56:00,
2013-05-27 07:01:00,45.8,40.6,30.19,WNW,290,2.9,4.6,82,0.00,CLR,,0.00,WeatherDisplay:10.37,2013-05-27 11:01:00,
2013-05-27 07:06:00,46.3,40.8,30.19,WNW,290,0.1,1.2,81,0.00,CLR,,0.00,WeatherDisplay:10.37,2013-05-27 11:06:00,
2013-05-27 07:11:00,46.6,40.4,30.19,WNW,290,1.0,4.0,79,0.00,CLR,,0.00,WeatherDisplay:10.37,2013-05-27 11:11:00,
2013-05-27 07:16:00,47.1,40.9,30.20,WNW,290,0.6,3.5,79,0.00,CLR,,0.00,WeatherDisplay:10.37,2013-05-27 11:16:00,
2013-05-27 07:21:00,47.4,41.2,30.19,NW,319,2.3,6.9,79,0.00,CLR,,0.00,WeatherDisplay:10.37,2013-05-27 11:21:00,
2013-05-27 07:26:00,47.7,41.2,30.20,NW,308,2.1,4.0,78,0.00,CLR,,0.00,WeatherDisplay:10.37,2013-05-27 11:26:00,
2013-05-27 07:31:00,48.1,41.6,30.20,WNW,292,0.5,1.2,78,0.00,CLR,,0.00,WeatherDisplay:10.37,2013-05-27 11:31:00,
2013-05-27 07:36:00,48.6,42.4,30.20,WNW,290,2.9,4.6,79,0.00,CLR,,0.00,WeatherDisplay:10.37,2013-05-27 11:36:00,
2013-05-27 07:41:00,49.1,42.9,30.20,West,279,4.0,6.9,79,0.00,CLR,,0.00,WeatherDisplay:10.37,2013-05-27 11:41:00,
2013-05-27 07:46:00,49.4,42.8,30.20,West,275,5.6,9.2,78,0.00,CLR,,0.00,WeatherDisplay:10.37,2013-05-27 11:46:00,
2013-05-27 07:51:00,49.7,43.5,30.20,WNW,284,5.7,6.9,79,0.00,CLR,,0.00,WeatherDisplay:10.37,2013-05-27 11:51:00,
2013-05-27 07:57:00,50.0,43.4,30.20,WNW,286,3.5,9.2,78,0.00,CLR,,0.00,WeatherDisplay:10.37,2013-05-27 11:57:00,
2013-05-27 08:02:00,50.3,43.7,30.20,NW,306,1.5,4.6,78,0.00,CLR,,0.00,WeatherDisplay:10.37,2013-05-27 12:02:00,
2013-05-27 08:07:00,50.8,45.2,30.20,NW,305,0.5,2.3,81,0.00,CLR,,0.00,WeatherDisplay:10.37,2013-05-27 12:07:00,
2013-05-27 08:12:00,51.2,45.2,30.20,West,271,1.7,3.5,80,0.00,CLR,,0.00,WeatherDisplay:10.37,2013-05-27 12:12:00,
2013-05-27 08:17:00,51.7,45.1,30.20,West,279,4.5,10.4,78,0.00,CLR,,0.00,WeatherDisplay:10.37,2013-05-27 12:17:00,
2013-05-27 08:22:00,51.9,45.3,30.20,West,278,2.0,3.5,78,0.00,CLR,,0.00,WeatherDisplay:10.37,2013-05-27 12:22:00,
2013-05-27 08:28:00,52.3,45.3,30.20,WNW,283,4.4,6.9,77,0.00,CLR,,0.00,WeatherDisplay:10.37,2013-05-27 12:28:00,
2013-05-27 08:33:00,52.4,45.1,30.20,West,263,5.1,9.2,76,0.00,CLR,,0.00,WeatherDisplay:10.37,2013-05-27 12:33:00,
2013-05-27 08:38:00,52.8,45.8,30.20,West,279,3.2,3.5,77,0.00,CLR,,0.00,WeatherDisplay:10.37,2013-05-27 12:38:00,
2013-05-27 08:43:00,53.2,46.2,30.20,West,267,6.4,11.5,77,0.00,CLR,,0.00,WeatherDisplay:10.37,2013-05-27 12:43:00,
2013-05-27 08:48:00,53.6,46.2,30.20,West,267,3.7,11.5,76,0.00,CLR,,0.00,WeatherDisplay:10.37,2013-05-27 12:48:00,
2013-05-27 08:53:00,54.0,47.0,30.20,West,259,6.3,10.4,77,0.00,CLR,,0.00,WeatherDisplay:10.37,2013-05-27 12:53:00,
2013-05-27 08:58:00,54.3,46.5,30.21,West,273,3.7,6.0,75,0.00,CLR,,0.00,WeatherDisplay:10.37,2013-05-27 12:58:00,
2013-05-27 09:03:00,54.6,46.1,30.21,West,261,7.7,11.5,73,0.00,CLR,,0.00,WeatherDisplay:10.37,2013-05-27 13:03:00,
2013-05-27 09:08:00,55.0,46.5,30.21,WNW,298,7.4,10.0,73,0.00,CLR,,0.00,WeatherDisplay:10.37,2013-05-27 13:08:00,
2013-05-27 09:13:00,55.2,45.2,30.21,WNW,296,4.0,11.5,69,0.00,CLR,,0.00,WeatherDisplay:10.37,2013-05-27 13:13:00,
2013-05-27 09:18:00,55.7,45.3,30.21,NW,307,6.5,8.1,68,0.00,CLR,,0.00,WeatherDisplay:10.37,2013-05-27 13:18:00,
2013-05-27 09:24:00,56.1,46.1,30.20,NW,306,3.3,6.9,69,0.00,CLR,,0.00,WeatherDisplay:10.37,2013-05-27 13:24:00,
2013-05-27 09:29:00,56.6,46.2,30.20,NW,318,7.7,12.7,68,0.00,CLR,,0.00,WeatherDisplay:10.37,2013-05-27 13:29:00,
2013-05-27 09:34:00,56.9,44.8,30.20,WNW,284,3.5,5.8,64,0.00,CLR,,0.00,WeatherDisplay:10.37,2013-05-27 13:34:00,
2013-05-27 09:39:00,57.2,46.3,30.20,NW,315,2.3,8.0,67,0.00,CLR,,0.00,WeatherDisplay:10.37,2013-05-27 13:39:00,
2013-05-27 09:44:00,57.6,46.7,30.20,NNW,335,6.0,6.0,67,0.00,CLR,,0.00,WeatherDisplay:10.37,2013-05-27 13:44:00,
2013-05-27 09:50:00,58.0,46.7,30.19,WSW,258,4.4,5.8,66,0.00,CLR,,0.00,WeatherDisplay:10.37,2013-05-27 13:50:00,
2013-05-27 09:55:00,58.3,45.8,30.19,NNW,348,4.4,6.9,63,0.00,CLR,,0.00,WeatherDisplay:10.37,2013-05-27 13:55:00,
2013-05-27 10:00:00,58.7,48.2,30.19,NW,317,4.7,7.0,68,0.00,CLR,,0.00,WeatherDisplay:10.37,2013-05-27 14:00:00,
2013-05-27 10:05:00,59.0,47.7,30.19,WNW,286,7.5,11.5,66,0.00,CLR,,0.00,WeatherDisplay:10.37,2013-05-27 14:05:00,
2013-05-27 10:10:00,59.3,47.1,30.19,WSW,238,2.4,7.0,64,0.00,CLR,,0.00,WeatherDisplay:10.37,2013-05-27 14:10:00,
2013-05-27 10:15:00,59.7,47.5,30.19,West,278,3.6,6.9,64,0.00,CLR,,0.00,WeatherDisplay:10.37,2013-05-27 14:15:00,
2013-05-27 10:20:00,60.2,46.7,30.19,West,261,4.2,11.5,61,0.00,CLR,,0.00,WeatherDisplay:10.37,2013-05-27 14:20:00,
2013-05-27 10:26:00,60.6,47.1,30.19,NW,306,4.6,4.6,61,0.00,CLR,,0.00,WeatherDisplay:10.37,2013-05-27 14:26:00,
2013-05-27 10:31:00,61.0,48.7,30.19,West,261,6.0,11.5,64,0.00,CLR,,0.00,WeatherDisplay:10.37,2013-05-27 14:31:00,
2013-05-27 10:36:00,60.9,44.6,30.19,West,266,11.3,17.3,55,0.00,CLR,,0.00,WeatherDisplay:10.37,2013-05-27 14:36:00,
2013-05-27 10:41:00,60.8,46.8,30.19,West,267,5.4,11.5,60,0.00,CLR,,0.00,WeatherDisplay:10.37,2013-05-27 14:41:00,
2013-05-27 10:46:00,61.2,45.8,30.19,West,277,4.0,9.2,57,0.00,CLR,,0.00,WeatherDisplay:10.37,2013-05-27 14:46:00,
2013-05-27 10:51:00,61.8,48.2,30.19,WSW,251,8.2,12.7,61,0.00,CLR,,0.00,WeatherDisplay:10.37,2013-05-27 14:51:00,
2013-05-27 10:56:00,62.4,45.5,30.19,NW,325,7.9,12.7,54,0.00,CLR,,0.00,WeatherDisplay:10.37,2013-05-27 14:56:00,
2013-05-27 11:02:00,62.5,46.1,30.19,WNW,295,4.3,10.4,55,0.00,CLR,,0.00,WeatherDisplay:10.37,2013-05-27 15:02:00,
2013-05-27 11:07:00,62.9,45.0,30.19,WNW,296,12.0,16.1,52,0.00,CLR,,0.00,WeatherDisplay:10.37,2013-05-27 15:07:00,
2013-05-27 11:12:00,62.7,44.8,30.19,West,264,9.7,15.0,52,0.00,CLR,,0.00,WeatherDisplay:10.37,2013-05-27 15:12:00,
2013-05-27 11:17:00,62.4,46.0,30.18,WNW,284,7.0,11.5,55,0.00,CLR,,0.00,WeatherDisplay:10.37,2013-05-27 15:17:00,
2013-05-27 11:22:00,62.7,45.3,30.18,NNW,336,6.7,11.5,53,0.00,CLR,,0.00,WeatherDisplay:10.37,2013-05-27 15:22:00,
2013-05-27 11:27:00,63.2,47.2,30.18,WNW,284,7.9,12.7,56,0.00,CLR,,0.00,WeatherDisplay:10.37,2013-05-27 15:27:00,
2013-05-27 11:32:00,63.8,45.3,30.18,WNW,294,15.1,20.7,51,0.00,CLR,,0.00,WeatherDisplay:10.37,2013-05-27 15:32:00,
2013-05-27 11:37:00,63.8,45.3,30.17,WNW,292,9.5,19.6,51,0.00,CLR,,0.00,WeatherDisplay:10.37,2013-05-27 15:37:00,
2013-05-27 11:42:00,63.8,44.3,30.17,WNW,293,10.0,23.0,49,0.00,CLR,,0.00,WeatherDisplay:10.37,2013-05-27 15:42:00,
2013-05-27 11:48:00,63.7,43.6,30.17,NW,323,8.1,19.6,48,0.00,CLR,,0.00,WeatherDisplay:10.37,2013-05-27 15:48:00,
2013-05-27 11:53:00,63.7,42.5,30.17,West,277,12.3,19.6,46,0.00,CLR,,0.00,WeatherDisplay:10.37,2013-05-27 15:53:00,
2013-05-27 11:58:00,64.2,43.5,30.17,WNW,286,10.4,16.1,47,0.00,CLR,,0.00,WeatherDisplay:10.37,2013-05-27 15:58:00,
2013-05-27 12:03:00,64.5,42.7,30.17,West,273,13.9,17.3,45,0.00,FEW,,0.00,WeatherDisplay:10.37,2013-05-27 16:03:00,
2013-05-27 12:08:00,64.4,40.8,30.17,West,262,6.3,7.0,42,0.00,FEW,,0.00,WeatherDisplay:10.37,2013-05-27 16:08:00,
2013-05-27 12:13:00,64.8,42.9,30.17,West,264,11.4,17.3,45,0.00,FEW,,0.00,WeatherDisplay:10.37,2013-05-27 16:13:00,
2013-05-27 12:18:00,65.1,49.5,30.16,West,261,11.0,11.5,57,0.00,FEW,,0.00,WeatherDisplay:10.37,2013-05-27 16:18:00,
2013-05-27 12:23:00,65.4,43.5,30.16,WNW,294,13.7,23.0,45,0.00,FEW,,0.00,WeatherDisplay:10.37,2013-05-27 16:23:00,
2013-05-27 12:29:00,65.6,46.5,30.16,WNW,293,8.3,14.0,50,0.00,FEW,,0.00,WeatherDisplay:10.37,2013-05-27 16:29:00,
2013-05-27 12:34:00,65.3,40.3,30.16,WNW,286,8.6,18.0,40,0.00,FEW,,0.00,WeatherDisplay:10.37,2013-05-27 16:34:00,
2013-05-27 12:39:00,65.4,41.7,30.16,West,280,11.9,16.1,42,0.00,FEW,,0.00,WeatherDisplay:10.37,2013-05-27 16:39:00,
2013-05-27 12:44:00,65.1,40.8,30.16,West,261,10.2,17.3,41,0.00,FEW,,0.00,WeatherDisplay:10.37,2013-05-27 16:44:00,
2013-05-27 12:49:00,65.3,39.0,30.16,West,273,9.4,19.6,38,0.00,FEW,,0.00,WeatherDisplay:10.37,2013-05-27 16:49:00,
2013-05-27 12:54:00,65.8,42.1,30.16,West,274,9.6,14.0,42,0.00,FEW,,0.00,WeatherDisplay:10.37,2013-05-27 16:54:00,
2013-05-27 13:00:00,66.0,45.2,30.16,NW,318,7.3,19.6,47,0.00,FEW,,0.00,WeatherDisplay:10.37,2013-05-27 17:00:00,
2013-05-27 13:05:00,65.8,40.1,30.16,West,266,12.3,13.8,39,0.00,FEW,,0.00,WeatherDisplay:10.37,2013-05-27 17:05:00,
2013-05-27 13:10:00,66.1,43.5,30.15,West,281,11.0,13.8,44,0.00,FEW,,0.00,WeatherDisplay:10.37,2013-05-27 17:10:00,
2013-05-27 13:15:00,66.4,41.3,30.15,WNW,284,12.0,17.3,40,0.00,FEW,,0.00,WeatherDisplay:10.37,2013-05-27 17:15:00,
2013-05-27 13:20:00,66.4,41.3,30.15,NW,304,4.8,10.4,40,0.00,FEW,,0.00,WeatherDisplay:10.37,2013-05-27 17:20:00,
2013-05-27 13:25:00,66.9,43.7,30.14,West,279,9.4,11.5,43,0.00,FEW,,0.00,WeatherDisplay:10.37,2013-05-27 17:25:00,
2013-05-27 13:30:00,67.3,49.1,30.14,WSW,256,9.0,16.0,52,0.00,FEW,,0.00,WeatherDisplay:10.37,2013-05-27 17:30:00,
2013-05-27 13:36:00,67.4,45.3,30.15,West,271,9.7,12.7,45,0.00,FEW,,0.00,WeatherDisplay:10.37,2013-05-27 17:36:00,
2013-05-27 13:41:00,67.4,44.7,30.15,WSW,254,9.9,18.4,44,0.00,FEW,,0.00,WeatherDisplay:10.37,2013-05-27 17:41:00,
2013-05-27 13:46:00,67.3,42.1,30.15,WSW,245,7.0,13.8,40,0.00,FEW,,0.00,WeatherDisplay:10.37,2013-05-27 17:46:00,
2013-05-27 13:51:00,67.7,45.0,30.14,WNW,300,5.4,11.5,44,0.00,FEW,,0.00,WeatherDisplay:10.37,2013-05-27 17:51:00,
2013-05-27 13:56:00,68.2,43.6,30.14,West,279,7.8,11.5,41,0.00,FEW,,0.00,WeatherDisplay:10.37,2013-05-27 17:56:00,
2013-05-27 14:01:00,68.6,46.4,30.14,WNW,303,5.1,12.7,45,0.00,FEW,,0.00,WeatherDisplay:10.37,2013-05-27 18:01:00,
2013-05-27 14:06:00,69.0,43.7,30.14,West,280,6.7,11.5,40,0.00,FEW,,0.00,WeatherDisplay:10.37,2013-05-27 18:06:00,
2013-05-27 14:11:00,69.1,46.9,30.14,NNW,329,5.3,11.5,45,0.00,FEW,,0.00,WeatherDisplay:10.37,2013-05-27 18:11:00,
2013-05-27 14:16:00,69.3,47.0,30.14,North,5,4.9,6.0,45,0.00,FEW,,0.00,WeatherDisplay:10.37,2013-05-27 18:16:00,
2013-05-27 14:22:00,69.3,45.2,30.13,NW,313,8.1,11.5,42,0.00,FEW,,0.00,WeatherDisplay:10.37,2013-05-27 18:22:00,
2013-05-27 14:27:00,68.9,46.1,30.13,WNW,292,7.2,13.8,44,0.00,FEW,,0.00,WeatherDisplay:10.37,2013-05-27 18:27:00,
2013-05-27 14:32:00,69.2,48.7,30.13,WNW,295,4.1,5.8,48,0.00,FEW,,0.00,WeatherDisplay:10.37,2013-05-27 18:32:00,
2013-05-27 14:37:00,69.5,43.4,30.13,NW,311,7.5,11.5,39,0.00,FEW,,0.00,WeatherDisplay:10.37,2013-05-27 18:37:00,
2013-05-27 14:42:00,69.5,47.2,30.14,West,269,11.4,12.7,45,0.00,FEW,,0.00,WeatherDisplay:10.37,2013-05-27 18:42:00,
2013-05-27 14:47:00,69.4,45.9,30.13,West,266,8.5,16.1,43,0.00,FEW,,0.00,WeatherDisplay:10.37,2013-05-27 18:47:00,
2013-05-27 14:52:00,69.6,44.2,30.13,West,280,7.5,11.5,40,0.00,FEW,,0.00,WeatherDisplay:10.37,2013-05-27 18:52:00,
2013-05-27 14:57:00,69.5,42.1,30.13,West,259,10.8,19.6,37,0.00,FEW,,0.00,WeatherDisplay:10.37,2013-05-27 18:57:00,
2013-05-27 15:02:00,69.1,44.4,30.13,West,281,6.0,13.0,41,0.00,FEW,,0.00,WeatherDisplay:10.37,2013-05-27 19:02:00,
2013-05-27 15:08:00,69.3,47.6,30.13,NW,304,6.0,11.5,46,0.00,FEW,,0.00,WeatherDisplay:10.37,2013-05-27 19:08:00,
2013-05-27 15:13:00,69.5,46.6,30.13,WNW,286,10.2,13.8,44,0.00,FEW,,0.00,WeatherDisplay:10.37,2013-05-27 19:13:00,
2013-05-27 15:18:00,69.6,45.5,30.12,West,273,8.3,16.1,42,0.00,FEW,,0.00,WeatherDisplay:10.37,2013-05-27 19:18:00,
2013-05-27 15:23:00,69.7,43.6,30.12,WSW,239,6.7,12.0,39,0.00,FEW,,0.00,WeatherDisplay:10.37,2013-05-27 19:23:00,
2013-05-27 15:28:00,69.5,42.1,30.12,WNW,288,6.4,11.5,37,0.00,FEW,,0.00,WeatherDisplay:10.37,2013-05-27 19:28:00,
2013-05-27 15:33:00,69.6,46.7,30.12,West,265,4.6,11.0,44,0.00,FEW,,0.00,WeatherDisplay:10.37,2013-05-27 19:33:00,
2013-05-27 15:38:00,69.8,45.0,30.12,West,269,6.7,11.5,41,0.00,FEW,,0.00,WeatherDisplay:10.37,2013-05-27 19:38:00,
2013-05-27 15:43:00,70.0,44.6,30.12,West,270,11.3,15.0,40,0.00,FEW,,0.00,WeatherDisplay:10.37,2013-05-27 19:43:00,
2013-05-27 15:48:00,70.0,47.1,30.12,West,274,7.2,11.0,44,0.00,FEW,,0.00,WeatherDisplay:10.37,2013-05-27 19:48:00,
2013-05-27 15:53:00,70.3,46.7,30.12,WSW,242,4.7,5.0,43,0.00,FEW,,0.00,WeatherDisplay:10.37,2013-05-27 19:53:00,
2013-05-27 15:58:00,71.0,47.4,30.12,West,271,5.8,11.5,43,0.00,FEW,,0.00,WeatherDisplay:10.37,2013-05-27 19:58:00,
2013-05-27 16:03:00,70.8,45.3,30.12,WNW,285,12.2,15.0,40,0.00,FEW,,0.00,WeatherDisplay:10.37,2013-05-27 20:03:00,
2013-05-27 16:08:00,70.6,48.2,30.12,West,266,6.8,11.0,45,0.00,FEW,,0.00,WeatherDisplay:10.37,2013-05-27 20:08:00,
2013-05-27 16:14:00,70.5,44.3,30.11,West,281,11.1,14.0,39,0.00,SCT,,0.00,WeatherDisplay:10.37,2013-05-27 20:14:00,
2013-05-27 16:19:00,70.1,44.6,30.11,WNW,298,10.2,18.4,40,0.00,SCT,,0.00,WeatherDisplay:10.37,2013-05-27 20:19:00,
2013-05-27 16:24:00,70.0,46.5,30.11,West,266,2.9,5.8,43,0.00,SCT,,0.00,WeatherDisplay:10.37,2013-05-27 20:24:00,
2013-05-27 16:29:00,70.3,47.3,30.12,WNW,287,10.2,11.5,44,0.00,SCT,,0.00,WeatherDisplay:10.37,2013-05-27 20:29:00,
2013-05-27 16:34:00,70.3,46.1,30.11,WSW,239,9.6,15.0,42,0.00,SCT,,0.00,WeatherDisplay:10.37,2013-05-27 20:34:00,
2013-05-27 16:39:00,70.2,45.4,30.11,WNW,282,8.8,13.8,41,0.00,SCT,,0.00,WeatherDisplay:10.37,2013-05-27 20:39:00,
2013-05-27 16:44:00,70.6,47.0,30.11,WSW,256,9.8,11.5,43,0.00,SCT,,0.00,WeatherDisplay:10.37,2013-05-27 20:44:00,
2013-05-27 16:49:00,70.8,43.2,30.11,West,268,7.2,11.5,37,0.00,SCT,,0.00,WeatherDisplay:10.37,2013-05-27 20:49:00,
2013-05-27 16:54:00,70.8,47.2,30.11,WNW,286,3.8,6.9,43,0.00,SCT,,0.00,WeatherDisplay:10.37,2013-05-27 20:54:00,
2013-05-27 17:00:00,71.1,46.2,30.11,WNW,292,8.6,12.7,41,0.00,SCT,,0.00,WeatherDisplay:10.37,2013-05-27 21:00:00,
2013-05-27 17:05:00,71.2,46.9,30.11,WSW,249,5.0,11.5,42,0.00,SCT,,0.00,WeatherDisplay:10.37,2013-05-27 21:05:00,
2013-05-27 17:10:00,71.0,44.1,30.11,West,260,9.3,18.4,38,0.00,SCT,,0.00,WeatherDisplay:10.37,2013-05-27 21:10:00,
2013-05-27 17:15:00,70.7,45.8,30.11,West,269,15.2,18.4,41,0.00,FEW,,0.00,WeatherDisplay:10.37,2013-05-27 21:15:00,
2013-05-27 17:20:00,70.1,44.0,30.11,West,260,6.7,16.1,39,0.00,FEW,,0.00,WeatherDisplay:10.37,2013-05-27 21:20:00,
2013-05-27 17:26:00,70.0,43.2,30.11,SSW,194,9.0,13.8,38,0.00,FEW,,0.00,WeatherDisplay:10.37,2013-05-27 21:26:00,
2013-05-27 17:31:00,70.0,45.2,30.11,West,275,12.2,16.1,41,0.00,FEW,,0.00,WeatherDisplay:10.37,2013-05-27 21:31:00,
2013-05-27 17:36:00,69.9,43.8,30.11,West,271,5.9,10.4,39,0.00,FEW,,0.00,WeatherDisplay:10.37,2013-05-27 21:36:00,
2013-05-27 17:41:00,69.7,44.9,30.11,West,271,5.9,12.7,41,0.00,FEW,,0.00,WeatherDisplay:10.37,2013-05-27 21:41:00,
2013-05-27 17:46:00,69.8,44.4,30.11,WNW,296,10.1,16.1,40,0.00,FEW,,0.00,WeatherDisplay:10.37,2013-05-27 21:46:00,
2013-05-27 17:51:00,69.7,44.3,30.12,WSW,257,11.2,16.1,40,0.00,FEW,,0.00,WeatherDisplay:10.37,2013-05-27 21:51:00,
2013-05-27 17:56:00,69.4,43.4,30.12,West,273,8.3,11.5,39,0.00,FEW,,0.00,WeatherDisplay:10.37,2013-05-27 21:56:00,
2013-05-27 18:01:00,69.1,44.4,30.12,SW,229,12.1,15.0,41,0.00,FEW,,0.00,WeatherDisplay:10.37,2013-05-27 22:01:00,
2013-05-27 18:06:00,69.1,43.1,30.11,West,279,6.7,10.4,39,0.00,FEW,,0.00,WeatherDisplay:10.37,2013-05-27 22:06:00,
2013-05-27 18:11:00,69.3,45.8,30.11,WNW,296,6.9,12.7,43,0.00,FEW,,0.00,WeatherDisplay:10.37,2013-05-27 22:11:00,
2013-05-27 18:17:00,69.4,45.9,30.11,SW,232,8.5,11.5,43,0.00,FEW,,0.00,WeatherDisplay:10.37,2013-05-27 22:17:00,
2013-05-27 18:22:00,69.2,43.8,30.11,West,274,9.6,16.0,40,0.00,FEW,,0.00,WeatherDisplay:10.37,2013-05-27 22:22:00,
2013-05-27 18:27:00,68.8,42.1,30.11,West,269,12.0,16.1,38,0.00,FEW,,0.00,WeatherDisplay:10.37,2013-05-27 22:27:00,
2013-05-27 18:32:00,68.6,44.6,30.11,WSW,252,6.4,10.4,42,0.00,FEW,,0.00,WeatherDisplay:10.37,2013-05-27 22:32:00,
2013-05-27 18:37:00,68.6,42.6,30.12,West,265,8.0,15.0,39,0.00,FEW,,0.00,WeatherDisplay:10.37,2013-05-27 22:37:00,
2013-05-27 18:42:00,68.6,42.6,30.12,West,264,6.4,10.0,39,0.00,FEW,,0.00,WeatherDisplay:10.37,2013-05-27 22:42:00,
2013-05-27 18:47:00,68.5,41.9,30.12,West,271,10.9,17.3,38,0.00,FEW,,0.00,WeatherDisplay:10.37,2013-05-27 22:47:00,
2013-05-27 18:52:00,68.0,42.1,30.12,WNW,288,8.0,12.7,39,0.00,FEW,,0.00,WeatherDisplay:10.37,2013-05-27 22:52:00,
2013-05-27 18:57:00,67.7,42.5,30.12,SW,233,7.5,11.5,40,0.00,FEW,,0.00,WeatherDisplay:10.37,2013-05-27 22:57:00,
2013-05-27 19:03:00,67.5,42.3,30.12,West,278,10.5,16.1,40,0.00,FEW,,0.00,WeatherDisplay:10.37,2013-05-27 23:03:00,
2013-05-27 19:08:00,67.2,41.4,30.12,West,266,11.0,13.8,39,0.00,FEW,,0.00,WeatherDisplay:10.37,2013-05-27 23:08:00,
2013-05-27 19:13:00,66.8,41.0,30.12,NW,307,5.5,9.2,39,0.00,FEW,,0.00,WeatherDisplay:10.37,2013-05-27 23:13:00,
2013-05-27 19:18:00,66.6,41.5,30.12,WSW,249,8.6,13.8,40,0.00,FEW,,0.00,WeatherDisplay:10.37,2013-05-27 23:18:00,
2013-05-27 19:23:00,66.2,40.5,30.12,West,278,7.7,11.5,39,0.00,FEW,,0.00,WeatherDisplay:10.37,2013-05-27 23:23:00,
2013-05-27 19:28:00,65.9,40.9,30.12,West,275,5.7,11.5,40,0.00,FEW,,0.00,WeatherDisplay:10.37,2013-05-27 23:28:00,
2013-05-27 19:33:00,65.6,40.6,30.12,West,261,6.1,8.0,40,0.00,FEW,,0.00,WeatherDisplay:10.37,2013-05-27 23:33:00,
2013-05-27 19:38:00,65.3,41.6,30.12,WNW,290,6.3,11.0,42,0.00,FEW,,0.00,WeatherDisplay:10.37,2013-05-27 23:38:00,
2013-05-27 19:43:00,65.0,42.5,30.13,WNW,285,4.4,11.5,44,0.00,FEW,,0.00,WeatherDisplay:10.37,2013-05-27 23:43:00,
2013-05-27 19:48:00,64.5,42.1,30.12,West,269,4.0,6.9,44,0.00,FEW,,0.00,WeatherDisplay:10.37,2013-05-27 23:48:00,
2013-05-27 19:53:00,64.0,40.4,30.13,West,281,5.5,11.5,42,0.00,FEW,,0.00,WeatherDisplay:10.37,2013-05-27 23:53:00,
2013-05-27 19:59:00,63.6,40.7,30.12,West,269,4.7,8.1,43,0.00,FEW,,0.00,WeatherDisplay:10.37,2013-05-27 23:59:00,
2013-05-27 20:04:00,63.1,40.2,30.13,WNW,284,4.9,8.1,43,0.00,FEW,,0.00,WeatherDisplay:10.37,2013-05-28 00:04:00,
2013-05-27 20:09:00,62.6,40.4,30.13,NW,315,5.5,9.2,44,0.00,FEW,,0.00,WeatherDisplay:10.37,2013-05-28 00:09:00,
2013-05-27 20:14:00,62.2,39.4,30.13,WNW,298,3.3,5.0,43,0.00,FEW,,0.00,WeatherDisplay:10.37,2013-05-28 00:14:00,
2013-05-27 20:19:00,61.9,39.7,30.13,WNW,284,5.7,10.4,44,0.00,FEW,,0.00,WeatherDisplay:10.37,2013-05-28 00:19:00,
2013-05-27 20:24:00,61.6,39.5,30.13,WNW,292,4.6,5.8,44,0.00,FEW,,0.00,WeatherDisplay:10.37,2013-05-28 00:24:00,
2013-05-27 20:29:00,61.4,39.3,30.13,WNW,290,2.8,3.5,44,0.00,FEW,,0.00,WeatherDisplay:10.37,2013-05-28 00:29:00,
2013-05-27 20:34:00,61.1,39.0,30.13,WNW,292,3.4,5.8,44,0.00,FEW,,0.00,WeatherDisplay:10.37,2013-05-28 00:34:00,
2013-05-27 20:39:00,60.8,39.3,30.13,WNW,286,2.6,4.6,45,0.00,FEW,,0.00,WeatherDisplay:10.37,2013-05-28 00:39:00,
2013-05-27 20:44:00,60.4,38.9,30.13,WNW,296,2.0,4.6,45,0.00,FEW,,0.00,WeatherDisplay:10.37,2013-05-28 00:44:00,
2013-05-27 20:49:00,60.0,38.0,30.13,WNW,299,2.0,4.6,44,0.00,FEW,,0.00,WeatherDisplay:10.37,2013-05-28 00:49:00,
2013-05-27 20:54:00,59.7,38.3,30.13,WNW,298,1.3,4.0,45,0.00,FEW,,0.00,WeatherDisplay:10.37,2013-05-28 00:54:00,
2013-05-27 21:00:00,59.5,38.7,30.13,NW,315,0.4,3.5,46,0.00,FEW,,0.00,WeatherDisplay:10.37,2013-05-28 01:00:00,
2013-05-27 21:05:00,59.2,37.9,30.13,WNW,293,2.3,3.5,45,0.00,FEW,,0.00,WeatherDisplay:10.37,2013-05-28 01:05:00,
2013-05-27 21:10:00,59.0,37.7,30.13,NW,308,3.2,4.6,45,0.00,FEW,,0.00,WeatherDisplay:10.37,2013-05-28 01:10:00,
2013-05-27 21:15:00,59.0,37.7,30.13,WNW,298,2.8,5.8,45,0.00,FEW,,0.00,WeatherDisplay:10.37,2013-05-28 01:15:00,
2013-05-27 21:20:00,59.0,37.7,30.13,NW,311,1.4,3.5,45,0.00,FEW,,0.00,WeatherDisplay:10.37,2013-05-28 01:20:00,
2013-05-27 21:25:00,59.0,37.7,30.14,NNW,334,1.1,3.5,45,0.00,FEW,,0.00,WeatherDisplay:10.37,2013-05-28 01:25:00,
2013-05-27 21:30:00,58.7,38.0,30.13,WNW,302,2.2,5.8,46,0.00,FEW,,0.00,WeatherDisplay:10.37,2013-05-28 01:30:00,
2013-05-27 21:35:00,58.4,38.2,30.13,NW,317,1.7,3.5,47,0.00,FEW,,0.00,WeatherDisplay:10.37,2013-05-28 01:35:00,
2013-05-27 21:41:00,58.1,38.0,30.13,NNW,346,0.4,2.3,47,0.00,FEW,,0.00,WeatherDisplay:10.37,2013-05-28 01:41:00,
2013-05-27 21:46:00,57.9,37.8,30.14,NW,309,3.6,6.9,47,0.00,FEW,,0.00,WeatherDisplay:10.37,2013-05-28 01:46:00,
2013-05-27 21:51:00,57.8,38.2,30.14,NNW,332,1.4,4.6,48,0.00,FEW,,0.00,WeatherDisplay:10.37,2013-05-28 01:51:00,
2013-05-27 21:56:00,57.7,38.7,30.14,NNW,332,1.4,3.5,49,0.00,FEW,,0.00,WeatherDisplay:10.37,2013-05-28 01:56:00,
2013-05-27 22:01:00,57.5,38.5,30.14,NNW,344,0.1,3.5,49,0.00,FEW,,0.00,WeatherDisplay:10.37,2013-05-28 02:01:00,
2013-05-27 22:06:00,57.1,39.1,30.14,NE,38,0.1,2.3,51,0.00,FEW,,0.00,WeatherDisplay:10.37,2013-05-28 02:06:00,
2013-05-27 22:11:00,56.9,37.4,30.15,NNE,14,0.2,3.5,48,0.00,FEW,,0.00,WeatherDisplay:10.37,2013-05-28 02:11:00,
2013-05-27 22:17:00,56.9,37.4,30.15,NNE,15,0.1,3.5,48,0.00,FEW,,0.00,WeatherDisplay:10.37,2013-05-28 02:17:00,
2013-05-27 22:22:00,56.9,37.4,30.15,NNE,22,0.1,1.2,48,0.00,FEW,,0.00,WeatherDisplay:10.37,2013-05-28 02:22:00,
2013-05-27 22:27:00,56.9,37.4,30.15,NNE,19,0.2,3.5,48,0.00,FEW,,0.00,WeatherDisplay:10.37,2013-05-28 02:27:00,
2013-05-27 22:32:00,57.0,38.0,30.15,NW,317,1.9,3.5,49,0.00,FEW,,0.00,WeatherDisplay:10.37,2013-05-28 02:32:00,
2013-05-27 22:37:00,56.9,37.4,30.15,NW,319,0.0,1.2,48,0.00,FEW,,0.00,WeatherDisplay:10.37,2013-05-28 02:37:00,
2013-05-27 22:42:00,56.8,37.3,30.15,NW,319,0.1,1.0,48,0.00,FEW,,0.00,WeatherDisplay:10.37,2013-05-28 02:42:00,
2013-05-27 22:47:00,56.8,37.3,30.16,NW,319,0.0,0.0,48,0.00,FEW,,0.00,WeatherDisplay:10.37,2013-05-28 02:47:00,
2013-05-27 22:52:00,56.9,37.4,30.16,NW,319,0.0,0.0,48,0.00,FEW,,0.00,WeatherDisplay:10.37,2013-05-28 02:52:00,
2013-05-27 22:57:00,56.9,37.4,30.16,NW,319,0.0,0.0,48,0.00,FEW,,0.00,WeatherDisplay:10.37,2013-05-28 02:57:00,
2013-05-27 23:02:00,56.8,37.3,30.16,NW,319,0.0,1.2,48,0.00,SCT,,0.00,WeatherDisplay:10.37,2013-05-28 03:02:00,
2013-05-27 23:08:00,56.7,36.7,30.16,NW,319,0.0,0.0,47,0.00,SCT,,0.00,WeatherDisplay:10.37,2013-05-28 03:08:00,
2013-05-27 23:13:00,56.6,37.1,30.17,NW,319,0.1,0.0,48,0.00,SCT,,0.00,WeatherDisplay:10.37,2013-05-28 03:13:00,
2013-05-27 23:18:00,56.5,37.0,30.17,NW,319,0.0,0.0,48,0.00,SCT,,0.00,WeatherDisplay:10.37,2013-05-28 03:18:00,
2013-05-27 23:23:00,56.3,37.4,30.17,NW,319,0.0,0.0,49,0.00,SCT,,0.00,WeatherDisplay:10.37,2013-05-28 03:23:00,
2013-05-27 23:28:00,55.8,37.9,30.17,NW,319,0.0,0.0,51,0.00,SCT,,0.00,WeatherDisplay:10.37,2013-05-28 03:28:00,
2013-05-27 23:33:00,55.4,37.6,30.17,NW,319,0.0,0.0,51,0.00,SCT,,0.00,WeatherDisplay:10.37,2013-05-28 03:33:00,
2013-05-27 23:38:00,55.2,37.4,30.17,NW,319,0.1,1.2,51,0.00,SCT,,0.00,WeatherDisplay:10.37,2013-05-28 03:38:00,
2013-05-27 23:43:00,54.8,38.9,30.18,East,88,2.9,4.0,55,0.00,SCT,,0.00,WeatherDisplay:10.37,2013-05-28 03:43:00,
2013-05-27 23:48:00,53.8,38.5,30.17,East,88,0.0,0.0,56,0.00,SCT,,0.00,WeatherDisplay:10.37,2013-05-28 03:48:00,
2013-05-27 23:53:00,53.3,37.1,30.17,East,88,0.0,0.0,54,0.00,SCT,,0.00,WeatherDisplay:10.37,2013-05-28 03:53:00,
2013-05-27 23:58:00,53.5,37.3,30.18,East,88,0.0,0.0,54,0.00,SCT,,0.00,WeatherDisplay:10.37,2013-05-28 03:58:00,